Find Kuiper-00015

NORAD ID: 63731 Int'l Des: 2025-088 Owner: KUIP Country: US Constellation: amazon-leo operational
LEOCIRCULAR

Live-Position

3D-Globus wird geladen...

Über Kuiper-00015

Beschreibung wird geladen...

Nächste Überflüge

Passes for default location (London). Set your location on the main map for personalized predictions.

Höhenverlauf

Loading altitude history...

Zweizeiliger Elementsatz

1 63731U 25088H 26127.65724169 -.00001154 00000-0 -12237-3 0 9992
2 63731 51.8984 217.3715 0000438 93.9871 266.1142 14.79923723 56432
Epoch: 7. Mai 2026 • Age: 8 hours

Aktueller Status

Höhe 647.2 km
Geschwindigkeit 7.53 km/s
Subsatellitenpunkt -50.58°S, 109.55°W
Startdatum 28. Apr. 2025
Alter 1 years
Typ internet

Technische Details

Klassifizierung Payload
Masse 490.00 kg
Trockenmasse 490.00 kg
Gesamtmasse 490.00 kg
Länge 1.80 m
Durchmesser 0.70 m
Spannweite 5.00 m
Form Box + 2 pan
Hersteller KUIP
Bus-Typ Kuiper
Phasenstatus In Orbit
Besitzer/Staat KUIP/US

Most Searched